Wetterdaten: aktuell Samstag, 23.02.2019 10:00
Datum Zeit Temperatur Bodentemp. Luftfeuchte Luftdruck Niederschlag Windgeschw. Windrichtung Windrichtung Sonnenschein Nieder.dauer Evapotrans. Solarstrahl. Taupunkt Windchill Windböen
23.02.2019 10:00 2,0 °C 1,7 °C 71 % 1041,8 hPa 0,0 l/m² 0,0 km/h (0 Bft) SO 135 ° 51 min 0 min 0 mm 260 W/m² -2,7 °C 2,0 °C 1,8 km/h (1 Bft)
23.02.2019 09:00 0,1 °C 0,0 °C 78 % 1042,0 hPa 0,0 l/m² 0,0 km/h (0 Bft) N 0 ° 49 min 0 min 0 mm 114 W/m² -3,3 °C 0,1 °C 0,0 km/h (0 Bft)
23.02.2019 08:00 -1,4 °C -1,1 °C 80 % 1042,2 hPa 0,0 l/m² 0,0 km/h (0 Bft) N 0 ° 25 min 0 min 0 mm 44 W/m² -4,4 °C -1,4 °C 0,0 km/h (0 Bft)
23.02.2019 07:00 -1,5 °C -1,7 °C 82 % 1042,2 hPa 0,0 l/m² 0,0 km/h (0 Bft) N 0 ° 0 min 0 min 0 mm 0 W/m² -4,2 °C -1,5 °C 0,0 km/h (0 Bft)
23.02.2019 06:00 -1,8 °C -2,2 °C 86 % 1042,7 hPa 0,0 l/m² 0,0 km/h (0 Bft) N 0 ° 0 min 0 min 0 mm 0 W/m² -3,8 °C -1,8 °C 0,0 km/h (0 Bft)
23.02.2019 05:00 -1,5 °C -2,2 °C 84 % 1042,3 hPa 0,0 l/m² 0,0 km/h (0 Bft) N 0 ° 0 min 0 min 0 mm 0 W/m² -3,8 °C -1,5 °C 0,0 km/h (0 Bft)
23.02.2019 04:00 -1,1 °C -2,2 °C 82 % 1042,2 hPa 0,0 l/m² 0,0 km/h (0 Bft) N 0 ° 0 min 0 min 0 mm 0 W/m² -3,8 °C -1,1 °C 0,0 km/h (0 Bft)
23.02.2019 03:00 -0,4 °C -1,7 °C 80 % 1042,7 hPa 0,0 l/m² 0,0 km/h (0 Bft) N 0 ° 0 min 0 min 0 mm 0 W/m² -3,4 °C -0,4 °C 0,0 km/h (0 Bft)
23.02.2019 02:00 -0,1 °C -0,6 °C 80 % 1042,2 hPa 0,0 l/m² 0,0 km/h (0 Bft) N 0 ° 0 min 0 min 0 mm 0 W/m² -3,1 °C -0,1 °C 0,0 km/h (0 Bft)
23.02.2019 01:00 0,1 °C -0,6 °C 85 % 1042,3 hPa 0,0 l/m² 0,0 km/h (0 Bft) N 0 ° 0 min 0 min 0 mm 0 W/m² -2,1 °C 0,1 °C 0,0 km/h (0 Bft)
23.02.2019 00:00 0,1 °C -0,6 °C 88 % 1043,2 hPa 0,0 l/m² 0,0 km/h (0 Bft) N 0 ° 0 min 0 min 0 mm 0 W/m² -1,6 °C 0,1 °C 0,0 km/h (0 Bft)
22.02.2019 23:00 0,5 °C 0,0 °C 88 % 1043,2 hPa 0,0 l/m² 0,0 km/h (0 Bft) N 0 ° 0 min 0 min 0 mm 0 W/m² -1,3 °C 0,5 °C 0,0 km/h (0 Bft)
22.02.2019 22:00 0,8 °C 0,0 °C 90 % 1042,3 hPa 0,0 l/m² 0,0 km/h (0 Bft) N 0 ° 0 min 0 min 0 mm 0 W/m² -0,6 °C 0,8 °C 0,0 km/h (0 Bft)
22.02.2019 21:00 0,7 °C -0,6 °C 91 % 1042,2 hPa 0,0 l/m² 0,0 km/h (0 Bft) N 0 ° 0 min 0 min 0 mm 0 W/m² -0,6 °C 0,7 °C 0,0 km/h (0 Bft)
22.02.2019 20:00 1,7 °C 1,1 °C 87 % 1041,6 hPa 0,0 l/m² 0,0 km/h (0 Bft) N 0 ° 0 min 0 min 0 mm 0 W/m² -0,2 °C 1,7 °C 0,0 km/h (0 Bft)
22.02.2019 19:00 2,3 °C 1,1 °C 84 % 1041,7 hPa 0,0 l/m² 0,0 km/h (0 Bft) N 0 ° 0 min 0 min 0 mm 0 W/m² -0,1 °C 2,3 °C 0,0 km/h (0 Bft)
22.02.2019 18:00 3,2 °C 2,2 °C 81 % 1041,3 hPa 0,0 l/m² 0,0 km/h (0 Bft) N 0 ° 8 min 0 min 0 mm 0 W/m² 0,3 °C 3,2 °C 0,0 km/h (0 Bft)
22.02.2019 17:00 4,6 °C 3,9 °C 76 % 1040,6 hPa 0,0 l/m² 0,0 km/h (0 Bft) O 90 ° 57 min 0 min 0 mm 35 W/m² 0,7 °C 4,6 °C 1,8 km/h (1 Bft)
22.02.2019 16:00 5,9 °C 5,6 °C 73 % 1040,6 hPa 0,0 l/m² 0,0 km/h (0 Bft) O 90 ° 45 min 0 min 0 mm 251 W/m² 1,4 °C 5,9 °C 1,8 km/h (1 Bft)
22.02.2019 15:00 5,4 °C 5,0 °C 73 % 1040,4 hPa 0,0 l/m² 0,0 km/h (0 Bft) O-SO 112 ° 59 min 0 min 0 mm 304 W/m² 1,0 °C 5,4 °C 1,8 km/h (1 Bft)
22.02.2019 14:00 5,1 °C 5,0 °C 76 % 1040,1 hPa 0,0 l/m² 5,4 km/h (1 Bft) O 90 ° 53 min 0 min 0 mm 401 W/m² 1,2 °C 5,1 °C 16,1 km/h (3 Bft)
22.02.2019 13:00 4,1 °C 4,4 °C 79 % 1039,6 hPa 0,0 l/m² 12,6 km/h (3 Bft) O 90 ° 18 min 0 min 0 mm 218 W/m² 0,8 °C -0,7 °C 16,1 km/h (3 Bft)
22.02.2019 12:00 3,7 °C 4,4 °C 83 % 1039,4 hPa 0,0 l/m² 9,0 km/h (2 Bft) O-SO 112 ° 2 min 0 min 0 mm 199 W/m² 1,1 °C 1,4 °C 14,4 km/h (3 Bft)
22.02.2019 11:00 3,2 °C 3,3 °C 86 % 1038,6 hPa 0,0 l/m² 14,4 km/h (3 Bft) O 90 ° 0 min 0 min 0 mm 76 W/m² 1,1 °C -2,8 °C 19,7 km/h (3 Bft)
_ Min-Zeit 05:26 03:18 15:12 11:00 - 11:39 - - - - - - 07:56 11:13 12:15
Minimum _ -1,8 °C -2,2 °C 70 % 1038,6 hPa - 0,0 km/h (0 Bft) - - - - - - -4,4 °C -3,7 °C 0,0 km/h (0 Bft)
_ Max-Zeit 16:00 12:30 21:08 23:30 11:00 11:13 - - 11:58 11:00 14:00 12:30 12:35 16:00 11:04
Maximum _ 5,9 °C 5,6 °C 93 % 1043,5 hPa 0,0 l/m² 16,1 km/h
O (3 Bft)
- - 1 min 0 min 0 mm 468 W/m² 1,6 °C 5,9 °C 25,1 km/h
O (4 Bft)
Durchschnitt _ 1,6 °C 1,1 °C 82 % 1041,4 hPa #0,0 l/m² 2,3 km/h (1 Bft) O - #2:05 h #0 min. #0,101 mm 107 W/m² -1,1 °C 0,9 °C 4,1 km/h (1 Bft)